DW7371 Weather Reports


Display with metric or nautical units.
time (UTC)temp
F
wind
direction
speed
MPH
gust
MPH
rain 1hr
in
rain 24hr
in
rain mn
in
humidity
%
barometer
mb
20200712040142 58 128 0.0 0.0 0.00 0.00 0.03 88 1018.6
20200712035143 58 128 0.0 0.0 0.00 0.00 0.02 86 1018.5
20200712034138 58 128 0.0 0.0 0.00 0.00 0.01 86 1018.5
20200712033140 58 128 0.0 0.0 0.00 0.00 0.01 85 1018.4
20200712032139 59 128 0.0 0.0 0.00 0.00 0.01 85 1018.3
20200712031136 59 128 0.0 0.0 0.00 0.00 0.01 85 1018.3
20200712030135 59 128 0.0 0.0 0.00 0.00 0.01 84 1018.5
20200712025133 59 128 0.0 0.0 0.00 0.00 0.01 83 1018.6
20200712024133 59 128 0.0 0.0 0.00 0.00 0.01 83 1018.6
20200712023131 59 128 0.0 0.0 0.00 0.00 0.01 82 1018.7
20200712022132 59 128 0.0 0.0 0.00 0.00 0.01 84 1018.6
20200712021129 59 128 0.0 0.0 0.00 0.00 0.01 83 1018.6
20200712020128 59 128 0.0 0.0 0.00 0.00 0.01 85 1018.6
20200712015127 59 128 0.0 0.0 0.00 0.00 0.01 86 1018.5
20200712014126 59 128 0.0 0.0 0.00 0.00 0.01 85 1018.6
20200712013126 59 128 0.0 0.0 0.00 0.00 0.01 87 1018.7
20200712012125 59 128 0.0 0.0 0.00 0.00 0.01 87 1018.6
20200712011123 59 128 0.0 0.0 0.00 0.00 0.01 85 1018.7
20200712010122 59 128 0.0 0.0 0.00 0.00 0.01 83 1018.7
20200712005122 59 128 0.0 0.0 0.00 0.00 0.01 83 1018.5
20200712004121 60 128 0.0 0.0 0.00 0.00 0.01 84 1018.7
20200712003119 60 128 0.0 0.0 0.00 0.00 0.01 82 1018.9
20200712002118 61 128 0.0 0.0 0.00 0.00 0.01 81 1019.0
20200712001118 61 128 0.0 0.0 0.00 0.00 0.01 80 1019.0
20200712000119 62 128 0.0 0.0 0.00 0.00 0.01 75 1019.1
20200711235115 62 128 0.0 0.0 0.00 0.00 0.01 78 1019.1
20200711234115 62 128 0.0 0.0 0.00 0.00 0.01 79 1019.1
20200711233113 62 128 0.0 0.0 0.00 0.00 0.01 82 1018.9
20200711232113 61 128 0.0 0.0 0.00 0.00 0.01 83 1018.9
20200711231111 61 128 0.0 0.0 0.00 0.00 0.00 80 1019.2
20200711230113 61 128 0.0 0.0 0.00 0.00 0.00 80 1019.0
20200711225110 61 128 0.0 0.0 0.00 0.00 0.00 81 1019.0
20200711224108 61 128 0.0 0.0 0.00 0.00 0.00 81 1019.1
20200711223108 61 128 0.0 0.0 0.00 0.00 0.00 80 1018.9
20200711222106 61 128 0.0 0.0 0.00 0.00 0.00 79 1019.0
20200711221105 61 128 0.0 0.0 0.00 0.00 0.00 79 1019.1
20200711220106 61 128 0.0 0.0 0.00 0.00 0.00 76 1018.9
20200711215104 61 128 0.0 0.0 0.00 0.00 0.00 76 1018.8
20200711214103 61 128 0.0 0.0 0.00 0.00 0.00 75 1018.8
20200711213102 61 128 0.0 0.0 0.00 0.00 0.00 78 1018.7
20200711212100 60 128 0.0 0.0 0.00 0.00 0.00 77 1018.7
20200711211100 60 128 0.0 0.0 0.00 0.00 0.00 78 1018.5
20200711210108 60 128 0.0 0.0 0.00 0.00 0.00 79 1018.7
20200711205057 60 128 0.0 0.0 0.00 0.00 0.00 77 1018.6
20200711204056 60 128 0.0 0.0 0.00 0.00 0.00 77 1018.4
20200711203055 60 128 0.0 0.0 0.00 0.00 0.00 77 1018.4
20200711202055 60 128 0.0 0.0 0.00 0.00 0.00 76 1018.5
20200711201053 60 128 0.0 0.0 0.00 0.00 0.00 77 1018.4
20200711200052 60 128 0.0 0.0 0.00 0.00 0.00 76 1018.3
20200711195052 61 128 0.0 0.0 0.00 0.00 0.00 74 1018.2
20200711194051 62 128 0.0 0.0 0.00 0.00 0.00 73 1018.0
20200711193050 63 128 0.0 0.0 0.00 0.00 0.00 71 1018.0
20200711192049 63 128 0.0 0.0 0.00 0.00 0.00 73 1018.0
20200711191048 62 128 0.0 0.0 0.00 0.00 0.00 73 1017.9
20200711190048 61 128 0.0 0.0 0.00 0.00 0.00 74 1018.2
20200711185046 61 128 0.0 0.0 0.00 0.00 0.00 76 1018.3
20200711184044 61 128 0.0 0.0 0.00 0.00 0.00 76 1018.0
20200711183043 60 128 0.0 0.0 0.00 0.00 0.00 78 1017.9
20200711182042 59 128 0.0 0.0 0.00 0.00 0.00 79 1018.1
20200711181041 59 128 0.0 0.0 0.00 0.00 0.00 79 1017.8
20200711180041 60 128 0.0 0.0 0.00 0.00 0.00 78 1018.3
20200711175040 59 128 0.0 0.0 0.00 0.00 0.00 83 1017.8
20200711174038 58 128 0.0 0.0 0.00 0.00 0.00 80 1017.6
20200711173038 58 128 0.0 0.0 0.00 0.00 0.00 80 1018.1
20200711172036 58 128 0.0 0.0 0.00 0.00 0.00 81 1018.1
20200711171035 58 128 0.0 0.0 0.00 0.00 0.00 82 1017.7
20200711170035 58 128 0.0 0.0 0.00 0.00 0.00 81 1017.9
20200711165034 58 128 0.0 0.0 0.00 0.00 0.00 82 1017.8
20200711164035 58 128 0.0 0.0 0.00 0.00 0.00 81 1017.9
20200711163031 58 128 0.0 0.0 0.00 0.00 0.00 83 1017.8
20200711162030 57 128 0.0 0.0 0.00 0.00 0.00 83 1017.9
20200711161031 57 128 0.0 0.0 0.00 0.00 0.00 82 1017.8
20200711160028 57 128 0.0 0.0 0.00 0.00 0.00 83 1017.9
20200711155028 57 128 0.0 0.0 0.00 0.00 0.00 86 1018.0
20200711154027 56 128 0.0 0.0 0.00 0.00 0.00 87 1018.0
20200711153026 56 128 0.0 0.0 0.00 0.00 0.00 88 1017.6
20200711152024 55 128 0.0 0.0 0.00 0.00 0.00 89 1018.2
20200711151024 55 128 0.0 0.0 0.00 0.00 0.00 89 1017.9
20200711150022 55 128 0.0 0.0 0.00 0.00 0.00 89 1017.6
20200711145021 55 128 0.0 0.0 0.00 0.00 0.00 90 1017.5
20200711144023 54 128 0.0 0.0 0.00 0.00 0.00 90 1017.5
20200711143023 54 128 0.0 0.0 0.00 0.00 0.00 92 1017.6
20200711142021 53 128 0.0 0.0 0.00 0.00 0.00 92 1017.7
20200711141021 53 128 0.0 0.0 0.00 0.00 0.00 93 1017.7
20200711140017 53 128 0.0 0.0 0.00 0.00 0.00 94 1017.7
20200711135016 52 128 0.0 0.0 0.00 0.00 0.00 94 1017.7
20200711134014 52 128 0.0 0.0 0.00 0.00 0.00 95 1017.8
20200711133014 52 128 0.0 0.0 0.00 0.00 0.00 95 1017.7
20200711132012 51 128 0.0 0.0 0.00 0.00 0.00 95 1017.8
20200711131013 50 128 0.0 0.0 0.00 0.00 0.00 94 1017.7
20200711130012 51 128 0.0 0.0 0.00 0.00 0.00 94 1017.7
20200711125009 51 128 0.0 0.0 0.00 0.00 0.00 95 1017.6
20200711124009 51 128 0.0 0.0 0.00 0.00 0.00 96 1017.6
20200711123015 50 128 0.0 0.0 0.00 0.00 0.00 95 1017.8
20200711122006 49 128 0.0 0.0 0.00 0.00 0.00 95 1017.9
20200711121006 49 128 0.0 0.0 0.00 0.00 0.00 94 1017.9
20200711120006 49 128 0.0 0.0 0.00 0.00 0.00 94 1017.9
20200711115003 50 128 0.0 0.0 0.00 0.00 0.00 95 1017.9
20200711114004 50 128 0.0 0.0 0.00 0.00 0.00 94 1017.8
20200711113001 50 128 0.0 0.0 0.00 0.00 0.00 94 1017.9
20200711112000 49 128 0.0 0.0 0.00 0.00 0.00 94 1018.0
20200711110959 49 128 0.0 0.0 0.00 0.00 0.00 93 1017.8
20200711110004 50 128 0.0 0.0 0.00 0.00 0.00 92 1017.9
20200711104957 51 128 0.0 0.0 0.00 0.00 0.00 94 1017.8
20200711103957 50 128 0.0 0.0 0.00 0.00 0.00 93 1018.0
20200711102955 50 128 0.0 0.0 0.00 0.00 0.00 93 1018.1
20200711101955 50 128 0.0 0.0 0.00 0.00 0.00 92 1018.1
20200711100954 51 128 0.0 0.0 0.00 0.00 0.00 91 1018.2
20200711095952 51 128 0.0 0.0 0.00 0.00 0.00 92 1018.3
20200711094953 52 128 0.0 0.0 0.00 0.00 0.00 92 1018.4
20200711093951 52 128 0.0 0.0 0.00 0.00 0.00 92 1018.5
20200711092950 52 128 0.0 0.0 0.00 0.00 0.00 91 1018.5
20200711091952 52 128 0.0 0.0 0.00 0.00 0.00 91 1018.5
20200711090948 52 128 0.0 0.0 0.00 0.00 0.00 91 1018.6
20200711085947 52 128 0.0 0.0 0.00 0.00 0.00 91 1018.7
20200711084945 51 128 0.0 0.0 0.00 0.00 0.00 92 1018.7
20200711083944 52 128 0.0 0.0 0.00 0.00 0.00 89 1018.9
20200711082944 52 128 0.0 0.0 0.00 0.00 0.00 90 1018.9
20200711081942 53 128 0.0 0.0 0.00 0.00 0.00 89 1018.8
20200711080941 53 128 0.0 0.0 0.00 0.00 0.00 90 1018.9
20200711075940 53 128 0.0 0.0 0.00 0.00 0.00 89 1019.0
20200711074939 53 128 0.0 0.0 0.00 0.00 0.00 90 1019.1
20200711073939 52 128 0.0 0.0 0.00 0.00 0.00 91 1019.1
20200711072938 52 128 0.0 0.0 0.00 0.00 0.00 90 1019.3
20200711071936 52 128 0.0 0.0 0.00 0.00 0.00 89 1019.2
20200711070935 53 128 0.0 0.0 0.00 0.00 0.00 88 1019.3
20200711065934 53 128 0.0 0.0 0.00 0.00 0.00 89 1019.4
20200711064934 53 128 0.0 0.0 0.00 0.00 0.00 89 1019.4
20200711063933 53 128 0.0 0.0 0.00 0.00 0.00 88 1019.3
20200711062931 53 128 0.0 0.0 0.00 0.00 0.00 88 1019.3
20200711061930 54 128 0.0 0.0 0.00 0.00 0.00 87 1019.3
20200711060930 54 128 0.0 0.0 0.00 0.00 0.00 86 1019.3
20200711055929 55 128 0.0 0.0 0.00 0.00 0.00 85 1019.3
20200711054928 56 128 0.0 0.0 0.00 0.00 0.00 82 1019.2
20200711053927 57 128 0.0 0.0 0.00 0.00 0.00 81 1019.3
20200711052926 57 128 0.0 0.0 0.00 0.00 0.00 80 1019.4
20200711051924 58 128 0.0 0.0 0.00 0.00 0.00 79 1019.3
20200711050925 59 128 0.0 0.0 0.00 0.00 0.00 75 1019.5
20200711045922 59 128 0.0 0.0 0.00 0.00 0.00 75 1019.5
20200711044921 60 128 0.0 0.0 0.00 0.00 0.00 74 1019.5
20200711043920 60 128 0.0 0.0 0.00 0.00 0.00 75 1019.5
20200711042920 60 128 0.0 0.0 0.00 0.00 0.00 75 1019.5
20200711041919 60 128 0.0 0.0 0.00 0.00 0.00 75 1019.5
20200711040919 60 128 0.0 0.0 0.00 0.00 0.00 76 1019.5